Location: Lake Arresoe
(56.0000°N, 12.5000°E)
Time: 08:12:36
(UTC+02:00)

Resurs 1-4 Rocket - Visible Passes

Search period start: 25 July 2021 00:00
Search period end: 04 August 2021 00:00
Orbit: 800 x 813 km, 98.6° (Epoch: 24 July)

Date Brightness Start Highest point End Pass type
(mag) Time Alt. Az. Time Alt. Az. Time Alt. Az.
25 Jul 3.2 02:09:50 10° NNE 02:14:44 35° E 02:19:08 12° SSE visible
25 Jul 2.6 03:49:36 10° N 03:54:45 50° WNW 03:59:51 10° SW visible
26 Jul 3.8 01:45:32 10° NE 01:49:50 24° E 01:54:05 10° SE visible
26 Jul 2.2 03:24:52 10° NNE 03:30:12 73° WNW 03:35:13 11° SSW visible
27 Jul 4.2 01:21:32 10° NE 01:24:51 16° E 01:28:09 10° ESE visible
27 Jul 2.2 03:00:13 10° NNE 03:05:34 79° ESE 03:10:13 14° SSW visible
28 Jul 4.5 00:58:37 10° ENE 00:59:46 11° E 01:00:55 10° E visible
28 Jul 2.6 02:35:38 10° NNE 02:40:51 53° E 02:45:13 14° S visible
28 Jul 3.1 04:15:45 10° N 04:20:32 35° WNW 04:25:18 10° WSW visible
29 Jul 3.2 02:11:09 10° NNE 02:16:03 36° E 02:20:14 13° SSE visible
29 Jul 2.6 03:50:57 10° N 03:56:04 49° WNW 04:01:09 10° SW visible
30 Jul 3.7 01:46:50 10° NE 01:51:10 25° E 01:55:13 11° SE visible
30 Jul 2.2 03:26:12 10° NNE 03:31:31 71° WNW 03:36:18 13° SSW visible
31 Jul 4.2 01:22:49 10° NE 01:26:11 17° E 01:29:32 10° SE visible
31 Jul 2.2 03:01:32 10° NNE 03:06:53 80° ESE 03:11:18 15° SSW visible
01 Aug 4.5 00:59:46 10° ENE 01:01:07 11° E 01:02:28 10° E visible
01 Aug 2.6 02:36:57 10° NNE 02:42:11 54° E 02:46:17 16° S visible
01 Aug 3.1 04:17:05 10° N 04:21:51 34° WNW 04:26:34 10° WSW visible
02 Aug 3.2 02:12:27 10° NNE 02:17:23 37° E 02:21:17 15° SSE visible
02 Aug 2.6 03:52:16 10° N 03:57:23 48° WNW 04:02:21 10° SW visible
03 Aug 3.7 01:48:08 10° NE 01:52:30 25° E 01:56:17 12° SE visible
03 Aug 2.2 03:27:32 10° NNE 03:32:50 70° WNW 03:37:21 14° SSW visible
